LAN315 SCEL-SCTE

Flight info

Callsign LAN315
Flight time 1h 33m
Altitude 33000
Route ANGOD6C ANGOD UQ803 ERUKA DCT SARTO SARTO2A
Aircraft A320/M-SDE3FGHIRWY/LB1

Departure

Time 2026-05-03 23:31
Airport Comodoro Arturo Merino Benítez International Airport (SCEL)

Arrival

Time 2026-05-04 01:04
Airport El Tepual International Airport (SCTE)
Time Latitude Longitude Altitude Speed Heading
2026-05-03 22:49 -33.39595 -70.79294 1565 ft 0 kts 175°
2026-05-03 23:19 -33.39579 -70.79295 1564 ft 4 kts 177°
2026-05-03 23:20 -33.39552 -70.79296 1564 ft 4 kts 179°
2026-05-03 23:20 -33.39530 -70.79296 1564 ft 4 kts 169°
2026-05-03 23:20 -33.39510 -70.79310 1564 ft 4 kts 110°
2026-05-03 23:20 -33.39506 -70.79332 1564 ft 0 kts 87°
2026-05-03 23:23 -33.39506 -70.79330 1564 ft 1 kts 87°
2026-05-03 23:23 -33.39505 -70.79310 1564 ft 4 kts 87°
2026-05-03 23:23 -33.39504 -70.79267 1564 ft 7 kts 88°
2026-05-03 23:23 -33.39502 -70.79202 1564 ft 9 kts 87°
2026-05-03 23:24 -33.39499 -70.79114 1564 ft 12 kts 87°
2026-05-03 23:24 -33.39495 -70.79005 1564 ft 14 kts 88°
2026-05-03 23:24 -33.39477 -70.78891 1564 ft 14 kts 52°
2026-05-03 23:24 -33.39395 -70.78831 1564 ft 14 kts 31°
2026-05-03 23:25 -33.39310 -70.78795 1564 ft 13 kts 359°
2026-05-03 23:25 -33.39213 -70.78800 1564 ft 15 kts 358°
2026-05-03 23:25 -33.39106 -70.78806 1564 ft 16 kts 357°
2026-05-03 23:25 -33.38989 -70.78812 1564 ft 17 kts 356°
2026-05-03 23:26 -33.38869 -70.78819 1564 ft 17 kts 358°
2026-05-03 23:26 -33.38751 -70.78825 1564 ft 17 kts 357°
2026-05-03 23:26 -33.38634 -70.78832 1564 ft 17 kts 358°
2026-05-03 23:26 -33.38515 -70.78837 1564 ft 17 kts 358°
2026-05-03 23:27 -33.38393 -70.78844 1564 ft 18 kts 358°
2026-05-03 23:27 -33.38265 -70.78850 1564 ft 19 kts 358°
2026-05-03 23:27 -33.38128 -70.78855 1564 ft 20 kts 358°
2026-05-03 23:27 -33.37983 -70.78864 1564 ft 21 kts 356°
2026-05-03 23:28 -33.37831 -70.78875 1564 ft 18 kts 358°
2026-05-03 23:28 -33.37727 -70.78879 1564 ft 8 kts 358°
2026-05-03 23:28 -33.37670 -70.78882 1564 ft 9 kts 360°
2026-05-03 23:28 -33.37623 -70.78840 1564 ft 9 kts 75°
2026-05-03 23:29 -33.37620 -70.78758 1564 ft 11 kts 91°
2026-05-03 23:29 -33.37642 -70.78675 1565 ft 11 kts 143°
2026-05-03 23:29 -33.37700 -70.78666 1565 ft 0 kts 178°
2026-05-03 23:29 -33.37702 -70.78666 1565 ft 1 kts 178°
2026-05-03 23:30 -33.37774 -70.78663 1564 ft 36 kts 178°
2026-05-03 23:30 -33.38244 -70.78637 1564 ft 97 kts 177°
2026-05-03 23:30 -33.39083 -70.78593 1564 ft 143 kts 178°
2026-05-03 23:30 -33.40189 -70.78545 1724 ft 166 kts 178°
2026-05-03 23:31 -33.41344 -70.78524 2301 ft 167 kts 179°
2026-05-03 23:31 -33.42507 -70.78460 2863 ft 171 kts 178°
2026-05-03 23:31 -33.43764 -70.78370 3094 ft 192 kts 177°
2026-05-03 23:31 -33.45180 -70.78268 3302 ft 216 kts 176°
2026-05-03 23:32 -33.46758 -70.78159 3554 ft 240 kts 176°
2026-05-03 23:32 -33.48506 -70.78043 3942 ft 262 kts 177°
2026-05-03 23:32 -33.50356 -70.77922 4662 ft 270 kts 176°
2026-05-03 23:32 -33.52227 -70.77802 5406 ft 275 kts 177°
2026-05-03 23:33 -33.54159 -70.77854 6156 ft 281 kts 191°
2026-05-03 23:33 -33.56080 -70.78373 6907 ft 285 kts 194°
2026-05-03 23:33 -33.58029 -70.78925 7631 ft 290 kts 194°
2026-05-03 23:33 -33.60011 -70.79494 8350 ft 295 kts 195°
2026-05-03 23:34 -33.62014 -70.80103 9070 ft 300 kts 196°
2026-05-03 23:34 -33.64047 -70.80739 9780 ft 304 kts 197°
2026-05-03 23:34 -33.66120 -70.81396 10325 ft 316 kts 197°
2026-05-03 23:34 -33.68322 -70.82092 10491 ft 339 kts 197°
2026-05-03 23:35 -33.70678 -70.82837 10615 ft 361 kts 197°
2026-05-03 23:35 -33.73164 -70.83621 10967 ft 374 kts 197°
2026-05-03 23:35 -33.75699 -70.84415 11562 ft 378 kts 197°
2026-05-03 23:35 -33.78254 -70.85209 12212 ft 381 kts 197°
2026-05-03 23:36 -33.80833 -70.86008 12862 ft 384 kts 197°
2026-05-03 23:36 -33.83425 -70.86813 13515 ft 386 kts 197°
2026-05-03 23:36 -33.86035 -70.87624 14118 ft 389 kts 197°
2026-05-03 23:36 -33.88658 -70.88440 14710 ft 390 kts 198°
2026-05-03 23:37 -33.91291 -70.89261 15311 ft 391 kts 198°
2026-05-03 23:37 -33.93927 -70.90086 15913 ft 392 kts 198°
2026-05-03 23:37 -33.96566 -70.90914 16521 ft 392 kts 198°
2026-05-03 23:37 -33.99211 -70.91743 17125 ft 394 kts 199°
2026-05-03 23:38 -34.01833 -70.92563 17780 ft 395 kts 198°
2026-05-03 23:38 -34.04514 -70.93356 18396 ft 398 kts 198°
2026-05-03 23:38 -34.07218 -70.94098 18983 ft 399 kts 198°
2026-05-03 23:38 -34.09943 -70.94819 19540 ft 402 kts 198°
2026-05-03 23:39 -34.12688 -70.95538 20072 ft 405 kts 198°
2026-05-03 23:39 -34.15451 -70.96266 20603 ft 408 kts 198°
2026-05-03 23:39 -34.18226 -70.97006 21094 ft 410 kts 199°
2026-05-03 23:39 -34.21019 -70.97757 21583 ft 413 kts 199°
2026-05-03 23:40 -34.23831 -70.98520 22049 ft 415 kts 199°
2026-05-03 23:40 -34.26650 -70.99294 22494 ft 417 kts 199°
2026-05-03 23:40 -34.27606 -70.99557 22636 ft 418 kts 199°
2026-05-03 23:40 -34.28524 -70.99811 22772 ft 418 kts 200°
2026-05-03 23:52 -34.29333 -71.00047 22918 ft 418 kts 201°
2026-05-03 23:52 -34.31474 -71.00676 23271 ft 419 kts 201°
2026-05-03 23:52 -34.34318 -71.01470 23676 ft 421 kts 200°
2026-05-03 23:53 -34.37190 -71.02240 24012 ft 423 kts 200°
2026-05-03 23:53 -34.40072 -71.03002 24372 ft 425 kts 200°
2026-05-03 23:53 -34.42967 -71.03770 24685 ft 426 kts 201°
2026-05-03 23:53 -34.45870 -71.04551 25025 ft 427 kts 201°
2026-05-03 23:54 -34.48775 -71.05343 25371 ft 428 kts 201°
2026-05-03 23:54 -34.51689 -71.06144 25709 ft 430 kts 201°
2026-05-03 23:54 -34.54576 -71.06943 26053 ft 431 kts 201°
2026-05-03 23:54 -34.57505 -71.07754 26320 ft 433 kts 201°
2026-05-03 23:55 -34.60448 -71.08566 26661 ft 434 kts 201°
2026-05-03 23:55 -34.63403 -71.09380 27026 ft 434 kts 201°
2026-05-03 23:55 -34.66343 -71.10189 27526 ft 432 kts 201°
2026-05-03 23:55 -34.69270 -71.10993 28005 ft 430 kts 202°
2026-05-03 23:56 -34.72180 -71.11793 28491 ft 428 kts 202°
2026-05-03 23:56 -34.75091 -71.12571 28964 ft 428 kts 201°
2026-05-03 23:56 -34.78000 -71.13295 29465 ft 427 kts 201°
2026-05-03 23:56 -34.80882 -71.13976 29962 ft 425 kts 201°
2026-05-03 23:57 -34.83816 -71.14658 30411 ft 424 kts 201°
2026-05-03 23:57 -34.86708 -71.15335 30839 ft 422 kts 201°
2026-05-03 23:57 -34.89578 -71.16018 31279 ft 419 kts 201°
2026-05-03 23:57 -34.92433 -71.16709 31721 ft 417 kts 201°
2026-05-03 23:58 -34.95235 -71.17392 32162 ft 415 kts 201°
2026-05-03 23:58 -34.98094 -71.18092 32627 ft 412 kts 201°
2026-05-03 23:58 -35.00862 -71.18769 33010 ft 411 kts 201°
2026-05-03 23:58 -35.03666 -71.19455 33104 ft 413 kts 201°
2026-05-03 23:59 -35.09384 -71.20872 33115 ft 423 kts 201°
2026-05-03 23:59 -35.15169 -71.22290 33115 ft 425 kts 201°
2026-05-04 00:00 -35.20970 -71.23699 33117 ft 425 kts 201°
2026-05-04 00:00 -35.26761 -71.25113 33121 ft 424 kts 201°
2026-05-04 00:01 -35.32554 -71.26542 33119 ft 424 kts 201°
2026-05-04 00:01 -35.38340 -71.27968 33131 ft 424 kts 202°
2026-05-04 00:02 -35.44127 -71.29398 33135 ft 424 kts 201°
2026-05-04 00:02 -35.49923 -71.30828 33129 ft 424 kts 202°
2026-05-04 00:03 -35.55717 -71.32259 33132 ft 425 kts 202°
2026-05-04 00:03 -35.61518 -71.33694 33129 ft 425 kts 202°
2026-05-04 00:04 -35.67288 -71.35127 33127 ft 426 kts 202°
2026-05-04 00:04 -35.73107 -71.36572 33118 ft 427 kts 202°
2026-05-04 00:05 -35.78930 -71.38024 33131 ft 427 kts 202°
2026-05-04 00:05 -35.84758 -71.39479 33130 ft 427 kts 202°
2026-05-04 00:06 -35.90592 -71.40938 33141 ft 428 kts 202°
2026-05-04 00:06 -35.96421 -71.42406 33144 ft 427 kts 202°
2026-05-04 00:07 -36.02252 -71.43868 33144 ft 427 kts 202°
2026-05-04 00:07 -36.08042 -71.45318 33143 ft 428 kts 202°
2026-05-04 00:08 -36.13881 -71.46780 33145 ft 427 kts 202°
2026-05-04 00:08 -36.19702 -71.48242 33136 ft 426 kts 202°
2026-05-04 00:09 -36.25517 -71.49706 33142 ft 427 kts 202°
2026-05-04 00:09 -36.31341 -71.51174 33145 ft 427 kts 202°
2026-05-04 00:10 -36.37170 -71.52650 33149 ft 427 kts 202°
2026-05-04 00:10 -36.42994 -71.54131 33156 ft 427 kts 202°
2026-05-04 00:11 -36.48829 -71.55612 33157 ft 428 kts 202°
2026-05-04 00:11 -36.54661 -71.57089 33165 ft 427 kts 202°
2026-05-04 00:12 -36.60473 -71.58564 33166 ft 427 kts 203°
2026-05-04 00:12 -36.66267 -71.60039 33158 ft 427 kts 203°
2026-05-04 00:13 -36.72083 -71.61529 33159 ft 427 kts 203°
2026-05-04 00:13 -36.77893 -71.63011 33279 ft 427 kts 203°
2026-05-04 00:14 -36.80804 -71.63753 33678 ft 425 kts 203°
2026-05-04 00:14 -36.83690 -71.64489 34073 ft 423 kts 203°
2026-05-04 00:14 -36.86567 -71.65226 34434 ft 421 kts 203°
2026-05-04 00:14 -36.89428 -71.65959 34772 ft 419 kts 204°
2026-05-04 00:15 -36.92279 -71.66689 35039 ft 418 kts 204°
2026-05-04 00:15 -36.95126 -71.67419 35123 ft 418 kts 204°
2026-05-04 00:15 -37.00815 -71.68884 35135 ft 417 kts 204°
2026-05-04 00:16 -37.06499 -71.70360 35130 ft 417 kts 204°
2026-05-04 00:16 -37.12198 -71.71841 35129 ft 418 kts 204°
2026-05-04 00:17 -37.17905 -71.73313 35130 ft 419 kts 204°
2026-05-04 00:17 -37.23585 -71.74776 35135 ft 419 kts 204°
2026-05-04 00:18 -37.29304 -71.76252 35141 ft 420 kts 204°
2026-05-04 00:18 -37.34970 -71.77723 35144 ft 420 kts 204°
2026-05-04 00:19 -37.40704 -71.79222 35150 ft 420 kts 204°
2026-05-04 00:19 -37.46430 -71.80717 35154 ft 421 kts 204°
2026-05-04 00:20 -37.52165 -71.82209 35159 ft 421 kts 204°
2026-05-04 00:20 -37.57898 -71.83705 35164 ft 421 kts 204°
2026-05-04 00:21 -37.63627 -71.85205 35166 ft 420 kts 204°
2026-05-04 00:21 -37.69350 -71.86700 35156 ft 420 kts 205°
2026-05-04 00:22 -37.75049 -71.88256 35157 ft 417 kts 206°
2026-05-04 00:22 -37.80659 -71.90017 35157 ft 414 kts 207°
2026-05-04 00:23 -37.86202 -71.91821 35156 ft 414 kts 207°
2026-05-04 00:23 -37.91785 -71.93600 35158 ft 414 kts 207°
2026-05-04 00:24 -37.97374 -71.95337 35153 ft 413 kts 207°
2026-05-04 00:24 -38.02949 -71.97069 35154 ft 412 kts 207°
2026-05-04 00:25 -38.08512 -71.98809 35146 ft 411 kts 207°
2026-05-04 00:25 -38.14060 -72.00551 35138 ft 410 kts 207°
2026-05-04 00:26 -38.19592 -72.02294 35137 ft 409 kts 207°
2026-05-04 00:26 -38.25111 -72.04039 35131 ft 408 kts 207°
2026-05-04 00:27 -38.30620 -72.05775 35131 ft 407 kts 207°
2026-05-04 00:27 -38.36113 -72.07510 35127 ft 406 kts 207°
2026-05-04 00:28 -38.41598 -72.09245 35128 ft 406 kts 207°
2026-05-04 00:28 -38.47037 -72.10972 35123 ft 405 kts 207°
2026-05-04 00:29 -38.52498 -72.12713 35123 ft 404 kts 207°
2026-05-04 00:29 -38.57966 -72.14452 35119 ft 404 kts 207°
2026-05-04 00:30 -38.63419 -72.16192 35117 ft 404 kts 207°
2026-05-04 00:30 -38.68628 -72.17854 35115 ft 404 kts 207°
2026-05-04 00:31 -38.74081 -72.19596 35115 ft 403 kts 207°
2026-05-04 00:31 -38.79522 -72.21345 35106 ft 403 kts 207°
2026-05-04 00:32 -38.84966 -72.23099 35104 ft 403 kts 207°
2026-05-04 00:32 -38.90413 -72.24848 35108 ft 403 kts 207°
2026-05-04 00:33 -38.98553 -72.27460 35112 ft 404 kts 207°
2026-05-04 00:34 -39.04000 -72.29221 35108 ft 404 kts 207°
2026-05-04 00:34 -39.09448 -72.30987 35114 ft 404 kts 207°
2026-05-04 00:35 -39.14896 -72.32753 35113 ft 404 kts 207°
2026-05-04 00:35 -39.20344 -72.34515 35113 ft 404 kts 207°
2026-05-04 00:36 -39.25794 -72.36283 35110 ft 404 kts 207°
2026-05-04 00:36 -39.31245 -72.38055 35114 ft 404 kts 207°
2026-05-04 00:37 -39.36700 -72.39834 35112 ft 404 kts 207°
2026-05-04 00:37 -39.42119 -72.41600 35105 ft 404 kts 207°
2026-05-04 00:38 -39.47574 -72.43377 35104 ft 404 kts 207°
2026-05-04 00:38 -39.53023 -72.45162 35105 ft 404 kts 207°
2026-05-04 00:39 -39.58476 -72.46949 35103 ft 404 kts 207°
2026-05-04 00:39 -39.63922 -72.48733 35109 ft 403 kts 207°
2026-05-04 00:40 -39.69342 -72.50514 35108 ft 403 kts 207°
2026-05-04 00:40 -39.74789 -72.52302 35103 ft 402 kts 207°
2026-05-04 00:41 -39.80220 -72.54069 35101 ft 402 kts 207°
2026-05-04 00:41 -39.85645 -72.55814 35098 ft 401 kts 207°
2026-05-04 00:42 -39.91064 -72.57553 35095 ft 401 kts 207°
2026-05-04 00:42 -39.96434 -72.59289 35093 ft 400 kts 207°
2026-05-04 00:43 -40.01828 -72.61038 35086 ft 399 kts 207°
2026-05-04 00:43 -40.07219 -72.62787 35091 ft 399 kts 207°
2026-05-04 00:44 -40.12591 -72.64528 35094 ft 397 kts 207°
2026-05-04 00:44 -40.17945 -72.66276 35087 ft 396 kts 207°
2026-05-04 00:45 -40.23301 -72.68029 34934 ft 396 kts 207°
2026-05-04 00:45 -40.25974 -72.68899 34700 ft 395 kts 207°
2026-05-04 00:45 -40.28633 -72.69764 34470 ft 394 kts 207°
2026-05-04 00:45 -40.30394 -72.70338 34308 ft 393 kts 207°
2026-05-04 00:46 -40.33903 -72.71482 33381 ft 394 kts 207°
2026-05-04 00:46 -40.36563 -72.72355 32633 ft 394 kts 207°
2026-05-04 00:46 -40.39178 -72.73215 31889 ft 395 kts 207°
2026-05-04 00:46 -40.41853 -72.74096 31101 ft 397 kts 207°
2026-05-04 00:47 -40.44537 -72.74983 30268 ft 400 kts 206°
2026-05-04 00:47 -40.47249 -72.75878 29319 ft 403 kts 206°
2026-05-04 00:47 -40.49090 -72.76484 28721 ft 404 kts 206°
2026-05-04 00:47 -40.51826 -72.77386 27784 ft 407 kts 205°
2026-05-04 00:48 -40.54548 -72.78284 26853 ft 410 kts 205°
2026-05-04 00:48 -40.57302 -72.79187 26289 ft 405 kts 205°
2026-05-04 00:48 -40.60024 -72.80073 25655 ft 402 kts 205°
2026-05-04 00:48 -40.62731 -72.80957 25024 ft 400 kts 205°
2026-05-04 00:49 -40.65421 -72.81844 24386 ft 398 kts 204°
2026-05-04 00:49 -40.68103 -72.82733 23757 ft 397 kts 204°
2026-05-04 00:49 -40.70780 -72.83621 23058 ft 396 kts 204°
2026-05-04 00:49 -40.73439 -72.84503 22430 ft 393 kts 204°
2026-05-04 00:50 -40.76084 -72.85380 21813 ft 390 kts 204°
2026-05-04 00:50 -40.78710 -72.86252 21195 ft 388 kts 203°
2026-05-04 00:50 -40.81326 -72.87121 20588 ft 387 kts 203°
2026-05-04 00:50 -40.83933 -72.87991 19980 ft 386 kts 203°
2026-05-04 00:51 -40.86530 -72.88861 19397 ft 385 kts 202°
2026-05-04 00:51 -40.89126 -72.89728 18825 ft 384 kts 202°
2026-05-04 00:51 -40.91711 -72.90589 18264 ft 383 kts 202°
2026-05-04 00:51 -40.94298 -72.91425 17644 ft 384 kts 199°
2026-05-04 00:52 -40.96970 -72.91872 17073 ft 387 kts 193°
2026-05-04 00:52 -40.99608 -72.92192 16506 ft 384 kts 193°
2026-05-04 00:52 -41.02258 -72.92513 15936 ft 381 kts 193°
2026-05-04 00:52 -41.04886 -72.92838 15363 ft 378 kts 193°
2026-05-04 00:53 -41.07447 -72.93158 14787 ft 375 kts 192°
2026-05-04 00:53 -41.10044 -72.93482 14198 ft 373 kts 192°
2026-05-04 00:53 -41.12623 -72.93804 13567 ft 371 kts 192°
2026-05-04 00:53 -41.15189 -72.94121 12937 ft 368 kts 192°
2026-05-04 00:54 -41.17725 -72.94435 12320 ft 365 kts 192°
2026-05-04 00:54 -41.20243 -72.94749 11711 ft 362 kts 191°
2026-05-04 00:54 -41.22749 -72.95066 11090 ft 360 kts 191°
2026-05-04 00:54 -41.25212 -72.95374 10820 ft 348 kts 191°
2026-05-04 00:55 -41.27580 -72.95616 10692 ft 335 kts 189°
2026-05-04 00:55 -41.29866 -72.95732 10567 ft 323 kts 187°
2026-05-04 00:55 -41.32072 -72.95784 10441 ft 312 kts 187°
2026-05-04 00:55 -41.34206 -72.95814 10327 ft 301 kts 187°
2026-05-04 00:56 -41.36275 -72.95850 10117 ft 294 kts 187°
2026-05-04 00:56 -41.38304 -72.95900 9892 ft 290 kts 187°
2026-05-04 00:56 -41.40315 -72.95960 9750 ft 289 kts 187°
2026-05-04 00:56 -41.42337 -72.96028 9368 ft 294 kts 187°
2026-05-04 00:57 -41.44390 -72.96103 9006 ft 293 kts 186°
2026-05-04 00:57 -41.46420 -72.96159 8671 ft 291 kts 186°
2026-05-04 00:57 -41.48441 -72.96224 8290 ft 290 kts 187°
2026-05-04 00:57 -41.50461 -72.96298 7928 ft 290 kts 186°
2026-05-04 00:58 -41.52474 -72.96373 7557 ft 289 kts 186°
2026-05-04 00:58 -41.54487 -72.96447 7212 ft 289 kts 186°
2026-05-04 00:58 -41.56493 -72.96516 6866 ft 288 kts 186°
2026-05-04 00:58 -41.58459 -72.96618 6413 ft 283 kts 192°
2026-05-04 00:59 -41.60241 -72.97510 5749 ft 271 kts 221°
2026-05-04 00:59 -41.61442 -72.99359 5008 ft 261 kts 249°
2026-05-04 00:59 -41.61841 -73.01665 4313 ft 253 kts 273°
2026-05-04 00:59 -41.61789 -73.03961 3974 ft 240 kts 274°
2026-05-04 01:00 -41.61747 -73.06102 3817 ft 221 kts 274°
2026-05-04 01:00 -41.61639 -73.08092 3701 ft 209 kts 288°
2026-05-04 01:00 -41.60827 -73.09574 3589 ft 198 kts 326°
2026-05-04 01:00 -41.59482 -73.09989 3272 ft 206 kts 356°
2026-05-04 01:01 -41.58047 -73.09934 2940 ft 207 kts 357°
2026-05-04 01:01 -41.56615 -73.09858 2616 ft 203 kts 357°
2026-05-04 01:01 -41.55243 -73.09799 2340 ft 192 kts 356°
2026-05-04 01:01 -41.53953 -73.09750 2104 ft 179 kts 356°
2026-05-04 01:02 -41.52749 -73.09707 1836 ft 166 kts 356°
2026-05-04 01:02 -41.51668 -73.09667 1643 ft 146 kts 355°
2026-05-04 01:02 -41.50684 -73.09633 1440 ft 138 kts 356°
2026-05-04 01:02 -41.49737 -73.09601 1255 ft 135 kts 357°
2026-05-04 01:03 -41.48803 -73.09572 1048 ft 135 kts 359°
2026-05-04 01:03 -41.47882 -73.09542 874 ft 134 kts
2026-05-04 01:03 -41.46942 -73.09507 712 ft 134 kts
2026-05-04 01:03 -41.46027 -73.09486 500 ft 133 kts
2026-05-04 01:04 -41.45107 -73.09440 377 ft 133 kts
2026-05-04 01:04 -41.44225 -73.09406 289 ft 117 kts
2026-05-04 01:04 -41.43611 -73.09389 300 ft 46 kts
2026-05-04 01:04 -41.43499 -73.09388 301 ft 7 kts 345°
2026-05-04 01:05 -41.43480 -73.09440 303 ft 8 kts 259°
2026-05-04 01:05 -41.43476 -73.09498 303 ft 8 kts 274°
2026-05-04 01:05 -41.43472 -73.09565 302 ft 8 kts 275°
2026-05-04 01:05 -41.43449 -73.09598 302 ft 4 kts 359°
2026-05-04 01:06 -41.43442 -73.09591 302 ft 1 kts 28°
2026-05-04 01:06 -41.43428 -73.09591 301 ft 3 kts
2026-05-04 01:06 -41.43394 -73.09591 301 ft 6 kts
2026-05-04 01:06 -41.43340 -73.09592 301 ft 9 kts 359°
2026-05-04 01:07 -41.43274 -73.09594 301 ft 4 kts 359°
2026-05-04 01:07 -41.43260 -73.09619 303 ft 4 kts 284°
2026-05-04 01:07 -41.43259 -73.09656 302 ft 4 kts 271°
2026-05-04 01:07 -41.43258 -73.09698 301 ft 2 kts 271°
2026-05-04 01:08 -41.43258 -73.09715 303 ft 2 kts 271°
2026-05-04 01:08 -41.43257 -73.09738 304 ft 3 kts 272°
2026-05-04 01:08 -41.43257 -73.09742 303 ft 1 kts 272°
2026-05-04 01:08 -41.43257 -73.09744 303 ft 0 kts 272°